Location: Hylvaty SDH
(49.9612°N, 16.4057°E)
Time: 03:33:19
(UTC+01:00)

Courier 1B Rocket - All Passes

Search period start: 25 January 2020 00:00
Search period end: 04 February 2020 00:00
Orbit: 920 x 1202 km, 28.2° (Epoch: 24 January)

Date Brightness Start Highest point End Pass type
(mag) Time Alt. Az. Time Alt. Az. Time Alt. Az.
26 Jan - 12:50:59 10° SSW 12:52:21 11° S 12:53:44 10° SSE daylight
27 Jan - 11:50:16 10° S 11:51:44 11° S 11:53:11 10° SSE daylight
28 Jan - 10:50:59 10° S 10:51:05 10° S 10:51:12 10° S daylight
28 Jan - 12:41:25 10° SSW 12:43:05 11° S 12:44:43 10° S daylight
29 Jan - 11:40:07 10° SSW 11:42:27 12° S 11:44:44 10° SSE daylight
30 Jan - 10:39:23 10° SSW 10:41:47 12° S 10:44:08 10° SSE daylight
30 Jan - 12:32:46 10° SSW 12:33:47 10° S 12:34:47 10° S daylight
31 Jan - 09:39:14 10° S 09:41:05 11° S 09:42:54 10° SSE daylight
31 Jan - 11:30:40 10° SSW 11:33:08 12° S 11:35:34 10° SSE daylight
01 Feb - 10:29:30 10° SSW 10:32:27 13° S 10:35:22 10° SSE daylight
02 Feb - 09:28:47 10° SSW 09:31:44 13° S 09:34:40 10° SSE daylight
02 Feb - 11:21:46 10° SSW 11:23:48 11° S 11:25:47 10° S daylight
03 Feb - 08:28:35 10° S 08:31:01 12° S 08:33:25 10° SSE daylight
03 Feb - 10:20:06 10° SSW 10:23:07 13° S 10:26:04 10° SSE daylight
